Meteo Giornale » Osservazioni meteo Stati Uniti (USA) » Danbury

ore: 11:53 - Osservazioni Meteo Danbury
Lat. 41° 22' N Lon. 73° 29' W Alt. 139 metri s.l.m.

coperto America/New_York

22 °C

Coperto

Temp. 24 Ore

19 °C

24 °C

Est

11.1 Km/h

Dew point 18 °C

Umidità 78 %

Visibilità  10 Km

Il sole sorge alle ore 06:35

Il sole tramonta alle ore 19:01

Data e Ora Cielo e Fenomeni T °C DP °C Um. % Pres. hPa Vis. km Vento km/h
Oggi h: 11:53 coperto Coperto 22 18 78 1025 10 E 11.1
Oggi h: 10:53 coperto Coperto 21 18 82 1026 13 NE 13
Oggi h: 09:53 coperto Coperto 20 18 88 1026 13 E 11.1
Oggi h: 09:23 foschia Foschia 19 18 93 1026 6 E/NE 11.1
Oggi h: 09:03 foschia Foschia 19 18 93 1026 3 NE 13
Oggi h: 08:53 foschia Foschia 19 18 93 1026 5 NE 9.3
Oggi h: 07:51 foschia Foschia 19 18 93 1026 3 E/NE 13
Oggi h: 07:50 foschia Foschia 19 18 93 1026 3 NE 14.8
Oggi h: 07:23 foschia Foschia 19 18 93 1026 2 E/NE 7.4
Oggi h: 06:53 foschia Foschia 19 18 93 1026 2 E/NE 9.3
Oggi h: 06:37 foschia Foschia 19 18 93 1025 3 E/NE 7.4
Oggi h: 06:26 coperto_pioggia Pioggia Debole Foschia 19 18 93 1025 5 E/NE 9.3
Oggi h: 05:53 foschia Foschia 19 18 93 1025 2 NE 9.3
Oggi h: 04:53 foschia Foschia 19 18 93 1025 6 E/NE 9.3
Oggi h: 03:53 foschia Foschia 20 18 88 1025 10 E/NE 16.7
Oggi h: 02:53 foschia Foschia 21 18 82 1024 6 E/NE 14.8
Oggi h: 02:41 coperto Coperto 21 18 82 1024 13 E/NE 14.8
Oggi h: 02:30 coperto Coperto 21 18 82 1024 10 E/NE 14.8
Oggi h: 01:53 coperto Coperto 21 18 82 1025 10 E/NE 11.1
Oggi h: 01:34 coperto Coperto 21 18 82 1025 10 NE 9.3
Oggi h: 00:53 coperto Coperto 21 19 88 1025 10 E 9.3
Ieri h: 23:53 coperto Coperto 22 18 78 1025 10 E 13
Ieri h: 22:53 coperto Coperto 22 18 78 1025 10 E 9.3
Ieri h: 21:53 coperto Coperto 22 18 78 1025 10 E 9.3
Ieri h: 21:49 coperto Coperto 22 18 78 1025 10 E 9.3
Ieri h: 21:41 coperto Coperto 22 18 78 1025 10 E 9.3
Ieri h: 20:53 coperto Coperto 22 18 78 1025 10 E/NE 13
Ieri h: 19:53 coperto Coperto 22 18 78 1025 10 E 9.3
Ieri h: 18:53 coperto Coperto 23 18 73 1024 10 E/NE 7.4
Ieri h: 17:53 coperto Coperto 23 18 73 1024 10 E 11.1
Ieri h: 16:53 coperto Coperto 24 18 69 1024 10 E 9.3
Ieri h: 16:19 coperto Coperto 24 18 69 1023 10 E 13
Ieri h: 15:53 coperto Coperto 24 18 69 1023 10 E 11.1
Ieri h: 14:53 coperto Coperto 24 17 64 1023 10 E 11.1
Ieri h: 14:45 coperto Coperto 24 17 64 1024 10 E 13
Ieri h: 14:35 coperto Coperto 24 18 69 1024 10 NE 13
Ieri h: 13:53 molto_nuvoloso Molto Nuvoloso 24 18 69 1024 10 NE 11.1
Ieri h: 12:53 coperto Coperto 23 17 68 1024 10 E/NE 9.3